Wind_Speed
26 29 30 30 29 29 28 25 23 22 21 18 18 17 17 17 17 17 17 16 16 16 16 16 16 16 16 15 15 15 16 17 17 18 18 19 19 20
26 30 33 34 35 33 30 28 26 25 23 21 19 19 19 19 19 19 19 18 17 17 17 18 19 18 18 17 17 17 17 18 19 20 20 20 19 20
24 27 33 36 37 37 34 32 29 28 26 23 22 21 20 20 20 19 20 20 20 18 18 18 18 19 19 19 19 19 19 19 19 20 19 19 19 21
23 25 30 36 37 38 35 33 32 30 27 24 23 23 22 21 22 22 21 21 22 21 20 19 19 18 18 18 19 20 19 19 19 20 20 20 21 22
23 23 25 33 38 37 35 33 32 31 29 26 24 24 24 23 24 25 25 24 24 23 22 22 22 21 20 20 20 21 21 22 22 23 23 23 22 22
22 23 23 28 36 39 36 34 33 32 32 29 27 26 27 26 26 26 25 25 25 26 25 25 24 24 23 23 22 23 24 24 24 25 24 23 22 21
21 20 18 20 30 37 37 35 32 31 31 30 28 28 28 30 30 29 28 28 28 30 30 29 27 26 26 25 25 25 25 24 23 24 24 23 22 22
21 19 18 18 20 27 34 35 33 32 32 32 30 29 29 31 31 30 30 30 31 32 31 31 30 29 29 29 29 29 28 26 25 26 25 25 24 23
23 21 20 20 20 21 26 31 31 30 30 30 30 29 30 30 31 31 30 30 31 33 34 33 32 31 31 31 31 31 30 29 28 27 27 27 25 24
25 24 23 23 23 23 23 25 26 27 28 29 29 30 30 30 30 29 28 28 28 29 33 31 31 31 31 31 31 31 31 31 30 29 28 28 27 25
28 27 26 26 26 26 26 27 26 26 27 28 29 29 30 31 30 30 29 29 29 29 31 29 29 30 30 30 31 31 31 30 29 28 28 28 28 26
27 28 28 26 25 26 27 28 29 29 28 28 28 28 29 30 31 31 31 31 31 30 32 31 30 32 31 32 33 33 32 32 31 30 30 29 28 27
26 27 27 26 25 25 25 26 28 28 29 30 30 30 30 30 31 32 33 34 35 34 34 34 34 35 36 35 36 35 34 32 31 31 31 29 28 28
26 25 25 24 24 23 23 24 24 24 25 26 28 29 29 29 30 31 32 33 35 37 37 37 37 38 39 37 36 35 34 32 30 29 29 28 27 28
25 25 24 23 22 22 21 21 21 22 23 23 24 25 26 27 28 29 31 31 32 34 35 37 39 39 40 38 36 35 34 33 32 31 30 29 28 28
23 23 22 21 21 21 20 19 18 18 19 19 19 20 22 23 23 25 27 30 31 33 36 38 40 42 41 41 39 38 37 35 34 34 34 32 31 30
20 19 20 20 20 20 21 20 20 19 19 18 18 19 21 22 23 24 26 28 31 34 38 40 42 42 42 41 40 41 40 38 36 37 37 37 35 33
18 18 18 19 19 21 22 22 22 21 21 20 21 22 23 24 24 25 26 28 30 32 36 39 42 44 45 44 43 41 39 40 40 41 41 39 37 35
16 16 16 16 16 17 17 17 18 19 20 21 22 24 26 27 28 27 27 27 27 28 31 35 37 40 41 41 41 41 40 40 40 41 41 39 37 36
13 14 15 15 15 15 16 16 17 18 19 21 23 25 27 28 29 30 31 31 31 31 30 30 31 33 35 40 42 43 43 42 41 42 42 40 39 38
9 11 12 13 14 15 16 17 19 20 22 24 25 26 27 28 29 31 32 34 35 35 35 34 33 32 31 32 35 37 39 41 41 41 41 40 39 39
5 8 9 10 12 13 15 16 18 21 22 24 25 26 26 27 28 30 31 33 34 35 36 36 36 35 34 33 33 33 34 36 38 39 40 42 42 40
5 6 7 8 9 10 11 13 15 17 19 21 23 24 25 26 27 28 29 30 31 31 32 33 35 35 36 36 35 36 36 36 37 37 39 41 42 42
Wind_Direction
258 252 243 238 241 239 234 231 232 234 235 237 239 240 238 239 240 242 242 242 245 251 257 260 261 263 265 265 263 260 257 254 254 259 267 272 274 273
263 255 245 239 239 239 235 231 232 234 236 237 239 240 241 240 240 242 245 246 247 252 259 260 259 259 261 260 260 261 262 264 267 270 270 270 270 270
269 260 248 242 240 237 236 233 233 236 237 238 238 240 243 245 244 243 247 249 248 250 255 257 256 256 257 260 263 265 266 267 270 271 269 266 266 269
273 269 253 244 240 236 236 235 232 232 233 237 239 241 243 244 245 245 248 251 252 251 252 252 253 255 257 260 264 265 263 266 271 273 271 268 268 269
273 276 266 246 236 231 232 233 233 232 232 236 239 245 247 246 248 249 250 252 255 256 255 255 256 259 261 261 265 263 263 268 272 272 271 270 270 268
275 274 273 249 233 227 226 230 234 235 236 240 245 249 250 249 251 253 255 256 255 256 258 259 261 263 264 264 264 262 264 268 270 270 268 268 268 265
278 274 271 252 232 226 226 229 232 234 238 243 248 250 251 253 254 255 258 260 257 254 256 259 261 263 264 262 263 263 263 264 267 267 265 266 267 266
269 269 260 252 242 234 229 229 232 237 241 245 248 250 254 255 256 257 260 261 256 253 254 257 260 263 265 265 263 263 261 260 263 264 265 267 267 267
260 260 257 253 252 248 238 235 237 243 246 247 249 249 252 254 258 261 263 263 258 254 254 256 259 262 266 266 262 261 261 261 261 260 263 266 265 264
254 252 252 253 254 253 249 247 249 250 250 251 252 253 253 254 257 261 264 262 259 256 257 258 260 261 262 262 259 260 262 263 261 260 262 264 264 262
254 251 249 249 251 251 250 250 251 252 254 255 254 252 252 252 253 256 258 260 259 259 261 260 259 257 256 256 256 258 263 264 262 258 257 260 261 258
254 253 252 252 252 251 250 249 250 251 252 252 253 253 253 253 251 252 256 260 261 259 260 259 255 255 254 254 256 258 262 264 263 259 258 259 257 255
251 249 249 251 250 248 248 248 248 248 249 251 253 255 256 257 256 254 255 258 260 261 260 260 257 254 255 255 256 258 260 262 263 260 258 258 257 256
246 244 243 243 244 246 246 246 248 251 253 255 256 257 259 261 261 259 258 258 259 260 261 261 258 255 254 255 254 255 257 258 259 258 257 257 258 258
241 240 237 234 236 241 242 242 247 254 258 261 264 264 265 266 266 263 259 258 257 259 260 259 257 256 256 254 252 253 255 255 256 255 255 258 260 260
236 234 230 228 230 233 235 238 245 254 260 264 267 268 272 274 272 267 261 257 255 254 254 255 255 255 256 257 255 252 252 253 253 253 257 259 259 260
224 225 225 225 229 235 239 242 247 253 258 262 265 268 270 274 275 270 265 260 256 252 251 252 252 253 253 254 255 254 251 250 250 252 256 257 256 259
212 217 222 229 236 242 245 247 248 252 257 262 266 270 272 273 274 273 271 267 264 260 258 257 256 256 254 255 256 255 255 255 254 254 256 256 256 257
203 215 222 224 229 235 240 243 248 255 262 267 271 273 273 273 272 272 272 273 272 271 268 264 262 260 256 252 250 249 248 250 253 253 253 254 255 256
200 214 222 225 229 235 244 252 260 266 270 272 273 274 273 272 271 270 271 272 272 273 273 272 269 265 261 256 253 252 251 251 251 250 251 253 255 256
214 228 238 242 244 246 253 261 268 273 275 276 276 276 275 274 273 273 273 273 273 272 271 269 269 268 267 263 260 258 255 254 253 253 251 250 250 253
249 254 255 255 255 257 261 266 270 273 274 275 275 276 277 278 278 278 279 278 277 275 272 270 268 267 266 265 263 261 259 257 256 256 255 252 252 253
308 283 269 261 260 263 266 270 273 276 279 281 281 282 282 283 283 283 285 286 284 280 275 271 269 268 267 267 265 264 261 260 260 259 261 261 258 259
Height
5804 5807 5809 5811 5814 5819 5822 5826 5830 5832 5833 5834 5836 5838 5840 5842 5844 5846 5848 5851 5853 5855 5856 5857 5858 5859 5859 5860 5861 5862 5863 5864 5865 5866 5866 5866 5865 5865
5797 5799 5802 5805 5807 5811 5816 5819 5823 5827 5829 5830 5833 5834 5836 5838 5840 5842 5844 5846 5848 5850 5851 5853 5854 5854 5855 5856 5857 5858 5858 5859 5860 5860 5860 5860 5860 5860
5789 5790 5793 5798 5800 5803 5808 5812 5817 5821 5823 5825 5828 5829 5831 5832 5835 5837 5838 5840 5842 5844 5846 5848 5849 5850 5851 5852 5852 5853 5853 5853 5854 5855 5855 5855 5855 5855
5783 5783 5784 5788 5791 5794 5799 5804 5809 5813 5817 5819 5821 5823 5825 5827 5829 5831 5834 5835 5837 5839 5841 5843 5844 5845 5846 5847 5847 5847 5848 5848 5849 5849 5850 5850 5850 5850
5777 5776 5775 5778 5782 5786 5791 5797 5801 5805 5809 5812 5814 5817 5819 5822 5823 5825 5828 5830 5832 5833 5835 5837 5838 5839 5840 5840 5841 5841 5842 5843 5843 5843 5844 5844 5844 5844
5770 5770 5769 5769 5773 5778 5784 5789 5794 5797 5801 5804 5807 5809 5812 5814 5817 5818 5821 5823 5826 5827 5827 5829 5830 5832 5833 5834 5834 5835 5835 5836 5836 5837 5837 5838 5838 5838
5764 5764 5764 5764 5767 5771 5777 5782 5786 5790 5793 5796 5799 5802 5804 5806 5809 5811 5814 5815 5817 5818 5819 5821 5822 5824 5825 5826 5827 5828 5828 5829 5830 5830 5831 5832 5832 5831
5758 5759 5760 5761 5763 5766 5770 5775 5779 5783 5786 5789 5792 5794 5796 5798 5800 5803 5805 5806 5808 5809 5810 5812 5814 5816 5818 5818 5819 5820 5820 5821 5822 5823 5824 5825 5825 5825
5752 5753 5755 5757 5759 5761 5764 5768 5772 5775 5778 5781 5784 5787 5789 5791 5792 5794 5796 5797 5799 5800 5800 5803 5805 5808 5809 5810 5811 5811 5812 5813 5814 5815 5816 5818 5818 5818
5745 5747 5750 5752 5754 5756 5759 5762 5764 5767 5770 5774 5777 5780 5782 5783 5784 5785 5786 5788 5790 5791 5791 5795 5797 5799 5800 5801 5802 5803 5803 5804 5805 5806 5808 5809 5810 5810
5738 5740 5743 5745 5748 5750 5753 5756 5758 5760 5763 5765 5768 5771 5773 5775 5776 5777 5778 5779 5781 5783 5783 5786 5789 5790 5791 5792 5794 5795 5796 5796 5797 5798 5799 5801 5801 5801
5730 5732 5735 5738 5740 5742 5746 5749 5751 5753 5756 5758 5760 5762 5764 5766 5767 5769 5770 5771 5772 5775 5775 5777 5780 5781 5783 5784 5785 5786 5788 5788 5789 5790 5791 5792 5792 5792
5722 5724 5727 5730 5732 5735 5738 5741 5743 5745 5748 5750 5752 5754 5756 5757 5758 5760 5761 5763 5764 5766 5767 5768 5771 5772 5773 5775 5775 5777 5778 5779 5781 5782 5782 5783 5783 5783
5715 5717 5720 5723 5726 5728 5731 5734 5736 5738 5740 5742 5744 5745 5747 5748 5749 5750 5752 5753 5754 5755 5756 5757 5759 5761 5763 5765 5766 5767 5768 5770 5771 5773 5773 5774 5774 5774
5708 5710 5713 5716 5719 5722 5725 5728 5730 5731 5733 5735 5737 5738 5739 5739 5740 5740 5741 5742 5743 5744 5745 5747 5748 5750 5751 5754 5756 5757 5758 5760 5762 5763 5764 5764 5765 5765
5701 5704 5707 5710 5713 5717 5719 5722 5724 5725 5727 5729 5730 5731 5731 5731 5731 5731 5732 5733 5734 5735 5735 5736 5737 5739 5740 5742 5744 5747 5748 5750 5752 5753 5754 5755 5755 5755
5695 5698 5702 5706 5709 5712 5714 5716 5718 5720 5721 5722 5723 5724 5724 5724 5724 5724 5724 5724 5725 5725 5726 5726 5726 5727 5728 5730 5732 5734 5736 5737 5739 5741 5743 5744 5744 5744
5690 5694 5698 5701 5704 5706 5709 5711 5713 5715 5716 5716 5716 5717 5717 5716 5716 5716 5716 5716 5715 5715 5714 5714 5715 5715 5716 5718 5720 5721 5722 5724 5725 5728 5730 5731 5732 5733
5687 5690 5693 5696 5699 5701 5703 5706 5708 5709 5709 5709 5709 5709 5709 5708 5708 5707 5707 5706 5706 5705 5704 5703 5702 5702 5703 5705 5707 5708 5710 5711 5712 5715 5717 5718 5719 5721
5686 5689 5691 5693 5696 5698 5699 5701 5702 5702 5703 5702 5702 5702 5701 5700 5699 5698 5698 5697 5696 5695 5694 5693 5692 5691 5691 5692 5693 5695 5696 5698 5699 5702 5704 5705 5707 5709
5685 5687 5689 5691 5692 5694 5695 5696 5697 5697 5696 5696 5695 5694 5692 5691 5690 5689 5688 5687 5685 5684 5683 5683 5682 5681 5680 5681 5682 5683 5683 5684 5686 5688 5690 5692 5694 5696
5684 5685 5686 5688 5689 5690 5691 5692 5692 5691 5690 5689 5688 5686 5685 5683 5681 5680 5677 5676 5674 5672 5671 5670 5670 5670 5670 5670 5670 5671 5672 5672 5673 5674 5676 5679 5680 5682
5682 5682 5683 5684 5685 5687 5687 5687 5687 5686 5685 5683 5681 5679 5677 5675 5673 5670 5668 5666 5663 5661 5660 5659 5658 5658 5658 5658 5659 5659 5660 5661 5661 5662 5663 5665 5667 5669